Mia-s — V2EI7 — position and weather

sailwx.info

Track history (hours):
 
Tides and Currents Weather Stations Pressure Air Temp Water Temp Dewpoint Dewpoint Depression Visibility Wind Speed Wind Dir Waves Ship Positions

Mia-s

Last reported at 2017-Aug-02 07:53 UTC. Time now 2017-Sep-25 17:17 UTC.
Position N 29°21' W 094°47'.
Warning: this ship's position is 54 days out of date.

Length 190 m; draft 7.1 m.

Type: Cargo ship. MMSI: 305442000.

Date/timePositionNaut miles runAvg speedWind from/ knotsBaromVisibWave heightAir tempDewpointWater temp
2017-Aug-02 07:53N 29°21' W 094°47'411.3
2017-Aug-02 07:30N 29°25' W 094°50'612.1
2017-Aug-02 07:00N 29°30' W 094°52'612.6
2017-Aug-02 06:31N 29°35' W 094°56'612.3
2017-Aug-02 06:01N 29°41' W 094°59'5 9.2
2017-Aug-02 05:30N 29°44' W 095°03'3 6.1
2017-Aug-02 05:01N 29°44' W 095°07'3 6.0
2017-Aug-02 04:31N 29°45' W 095°10'3 5.8
2017-Aug-02 04:01N 29°43' W 095°13'3 4.6
2017-Aug-02 03:21N 29°44' W 095°17'  
2017-Jul-26 05:57N 29°44' W 095°17'1 1.7
2017-Jul-26 05:30N 29°44' W 095°16'2 4.6
2017-Jul-26 05:00N 29°44' W 095°14'2 4.8
2017-Jul-26 04:30N 29°45' W 095°11'4 5.7
2017-Jul-26 03:52N 29°44' W 095°07'2 5.3
2017-Jul-26 03:30N 29°46' W 095°05'4 7.4
2017-Jul-26 02:57N 29°43' W 095°01'4 8.1
2017-Jul-26 02:30N 29°41' W 094°59'611.2
2017-Jul-26 02:00N 29°35' W 094°56'611.6
2017-Jul-26 01:30N 29°31' W 094°53'611.9
2017-Jul-26 01:00N 29°25' W 094°50'  
Track history (hours):
 
Tides and Currents Weather Stations Pressure Air Temp Water Temp Dewpoint Dewpoint Depression Visibility Wind Speed Wind Dir Waves Ship Positions

Mia-s

Last reported at 2017-Aug-02 07:53 UTC. Time now 2017-Sep-25 17:17 UTC.
Position N 29°21' W 094°47'.
Warning: this ship's position is 54 days out of date.

Length 190 m; draft 7.1 m.

Type: Cargo ship. MMSI: 305442000.

Date/timePositionNaut miles runAvg speedWind from/ knotsBaromVisibWave heightAir tempDewpointWater temp
2017-Aug-02 07:53N 29°21' W 094°47'411.3
2017-Aug-02 07:30N 29°25' W 094°50'612.1
2017-Aug-02 07:00N 29°30' W 094°52'612.6
2017-Aug-02 06:31N 29°35' W 094°56'612.3
2017-Aug-02 06:01N 29°41' W 094°59'5 9.2
2017-Aug-02 05:30N 29°44' W 095°03'3 6.1
2017-Aug-02 05:01N 29°44' W 095°07'3 6.0
2017-Aug-02 04:31N 29°45' W 095°10'3 5.8
2017-Aug-02 04:01N 29°43' W 095°13'3 4.6
2017-Aug-02 03:21N 29°44' W 095°17'  
2017-Jul-26 05:57N 29°44' W 095°17'1 1.7
2017-Jul-26 05:30N 29°44' W 095°16'2 4.6
2017-Jul-26 05:00N 29°44' W 095°14'2 4.8
2017-Jul-26 04:30N 29°45' W 095°11'4 5.7
2017-Jul-26 03:52N 29°44' W 095°07'2 5.3
2017-Jul-26 03:30N 29°46' W 095°05'4 7.4
2017-Jul-26 02:57N 29°43' W 095°01'4 8.1
2017-Jul-26 02:30N 29°41' W 094°59'611.2
2017-Jul-26 02:00N 29°35' W 094°56'611.6
2017-Jul-26 01:30N 29°31' W 094°53'611.9
2017-Jul-26 01:00N 29°25' W 094°50'  

Dump ship's entire track history